Theta_e
331 317 317 317 302 301 300 311 321 318 320 326 329 327 323 325 320 307 333 342 353 357 360 361 362 363 363 363 362 363 363 362 362 363 362 362 360 358 357 357 356 354 352 352 353 354 354 353 354
324 317 312 305 296 292 296 312 316 317 324 328 328 327 325 326 332 332 336 349 354 358 359 359 363 363 363 362 362 363 363 362 362 363 361 361 360 358 355 356 354 353 353 355 355 356 355 354 355
321 316 304 298 293 292 295 311 318 322 325 325 326 330 328 326 334 334 339 349 356 357 358 359 362 362 362 362 362 363 364 362 362 362 361 360 359 358 357 354 354 354 356 357 356 354 353 353 353
311 305 300 293 292 297 300 303 310 320 317 325 330 324 331 335 337 343 347 351 353 355 357 362 362 362 363 362 362 363 363 362 362 362 361 359 357 358 355 353 354 356 356 354 350 348 349 349 350
308 298 291 289 291 296 301 304 306 313 312 326 329 326 326 336 342 344 347 349 350 354 359 361 362 362 362 362 362 363 363 362 362 362 361 358 358 357 354 352 352 355 355 350 346 348 348 347 349
302 296 289 287 292 297 300 305 308 317 325 327 327 327 328 338 344 343 345 343 350 354 358 359 363 362 362 361 362 362 362 362 362 362 361 360 358 357 354 352 351 354 353 349 347 348 347 347 348
298 293 289 290 293 296 301 305 313 317 328 326 334 327 334 341 345 344 344 343 351 355 356 358 359 361 363 361 361 361 361 361 361 360 360 359 358 356 354 352 351 354 354 350 349 349 348 349 348
299 295 291 290 292 294 302 302 305 307 308 334 336 324 323 336 344 342 342 346 349 353 355 357 358 358 357 357 361 361 360 361 360 360 359 359 358 357 355 351 351 353 355 351 351 350 350 350 350
301 292 288 291 293 297 300 301 306 308 311 317 331 330 334 339 339 338 341 346 346 349 352 355 355 355 357 354 358 361 360 361 360 360 359 356 349 350 349 350 350 354 356 353 352 351 351 351 351
297 290 293 297 297 299 300 300 301 304 305 321 324 325 331 332 331 338 340 342 343 344 348 352 354 352 353 356 353 351 353 354 353 353 352 348 346 345 348 349 354 354 356 354 352 351 351 350 334
294 293 298 301 302 301 301 302 303 301 300 306 321 322 326 328 328 339 341 343 343 343 345 349 351 350 350 351 349 347 347 349 348 349 348 345 346 343 347 342 344 345 351 343 344 342 340 332 325
297 299 299 302 303 300 300 302 303 302 302 306 325 325 326 327 325 332 340 342 342 342 343 347 348 347 345 348 349 345 346 345 344 344 346 343 340 339 340 341 341 341 341 340 335 335 333 329 324
295 299 300 301 300 298 301 302 302 301 307 307 329 327 325 325 326 335 336 341 341 338 341 344 345 344 342 346 345 343 344 345 344 342 344 344 339 339 339 340 339 339 338 336 331 333 334 325 321
297 297 298 299 299 297 298 300 300 303 307 307 320 328 327 327 328 334 337 337 338 340 339 341 342 342 339 344 341 341 342 343 342 342 343 345 343 341 339 337 339 338 337 336 334 332 328 320 323
298 296 297 298 298 297 299 297 298 304 304 305 305 304 317 323 331 334 336 336 335 335 337 338 340 340 339 342 341 339 341 342 340 342 342 345 344 343 340 336 336 338 339 337 334 328 323 320 322
296 292 288 296 299 301 298 292 300 303 302 303 304 305 318 328 334 336 336 337 336 334 335 335 341 340 341 342 342 339 339 341 341 341 342 344 344 341 340 335 336 338 342 332 327 324 321 318 319
291 287 289 293 298 299 297 295 300 303 302 302 303 304 322 328 331 334 335 335 335 332 334 335 337 339 339 343 344 342 339 341 343 343 343 343 344 345 341 338 336 337 343 337 331 328 329 325 320
288 288 289 290 296 298 296 295 302 302 301 302 302 311 318 324 326 329 332 335 333 332 333 336 337 340 340 343 344 345 343 343 342 342 344 344 344 345 342 339 336 336 338 342 335 330 329 326 321
293 292 291 295 299 296 298 296 298 301 299 300 303 316 319 320 323 325 325 328 333 335 334 336 339 340 344 342 343 340 341 343 345 345 345 344 344 343 340 340 337 336 336 335 339 332 330 325 321
294 292 291 296 299 297 296 297 299 299 299 302 307 316 318 319 326 330 331 340 342 341 339 343 341 341 345 346 346 341 341 345 345 346 345 346 344 342 340 337 337 336 337 339 339 332 330 327 324
296 293 294 294 299 298 295 293 296 300 301 301 305 315 318 323 326 330 337 337 337 338 340 341 342 347 345 348 348 347 346 347 345 345 343 344 343 343 340 337 336 335 336 336 338 332 331 327 327
291 299 299 298 293 288 294 287 290 297 297 302 306 314 315 323 327 333 333 332 333 334 337 337 339 343 348 349 348 348 345 346 348 346 345 344 344 342 344 341 338 336 336 334 339 337 332 330 326
296 301 298 298 293 289 291 286 290 294 296 302 307 313 322 324 326 328 329 328 328 330 329 330 333 336 341 343 342 345 343 345 347 347 345 343 342 341 343 340 338 335 336 337 338 337 333 333 330
303 298 297 294 289 285 289 288 288 296 300 303 306 319 320 321 321 323 324 324 324 325 326 328 329 329 332 340 339 338 334 340 340 340 341 343 342 339 341 340 338 339 337 335 338 339 336 333 332
297 292 285 284 284 284 291 289 294 301 303 303 306 308 314 319 319 319 320 321 321 321 322 325 325 325 328 333 337 335 336 336 333 337 339 339 339 339 341 339 339 338 338 337 338 339 338 336 334
295 291 286 279 280 286 293 290 296 304 306 306 306 307 309 312 317 318 320 321 320 321 321 321 322 322 323 325 327 334 337 337 336 333 336 340 339 342 345 344 343 341 339 339 338 340 338 337 335
294 290 297 291 292 286 288 298 303 306 305 305 305 306 306 308 308 309 313 314 314 318 319 321 320 321 322 321 321 322 325 330 332 332 335 333 334 338 340 342 344 342 339 339 339 337 337 336 335
297 298 288 287 280 282 287 290 293 300 301 304 303 304 306 307 307 307 307 308 307 308 308 311 312 311 315 321 321 321 323 323 323 323 325 331 332 334 335 336 338 339 338 338 340 339 336 333 332
294 293 295 291 289 284 283 287 299 301 303 303 304 305 306 308 308 307 307 305 306 307 307 308 308 308 309 311 311 314 317 320 319 318 319 323 329 330 332 334 335 337 338 340 337 336 338 337 335
297 294 293 288 286 289 290 289 305 303 304 305 304 306 307 309 310 310 311 307 304 303 306 306 307 307 308 309 310 309 311 313 314 317 316 318 319 327 329 330 333 333 335 335 336 335 337 336 333
Wind_Speed
4 3 2 4 5 5 2 6 7 8 3 1 5 5 9 4 1 5 5 12 19 17 15 16 19 18 18 16 15 15 15 16 15 15 15 14 12 12 11 9 9 9 9 9 8 7 7 6 8
3 2 4 3 4 3 6 4 12 5 9 15 10 5 3 3 2 6 6 9 21 18 15 15 20 19 17 17 15 14 14 14 15 14 14 13 12 11 10 8 8 8 8 7 7 5 4 4 5
2 1 4 4 3 6 6 8 13 10 16 5 7 2 4 4 3 10 9 17 15 15 14 16 22 21 19 18 15 14 14 14 14 14 14 13 12 10 9 7 7 7 7 6 6 4 3 3 4
3 5 5 5 8 12 6 9 9 18 4 3 13 6 1 4 2 4 22 16 16 13 12 19 21 20 19 18 18 16 15 14 13 13 12 12 11 9 8 7 6 6 5 5 4 3 1 1 2
4 4 3 2 8 7 8 13 15 11 7 8 6 5 2 2 4 13 17 14 15 12 12 16 23 22 20 19 18 17 15 15 14 13 12 11 10 8 7 7 5 4 4 3 2 1 1 3 3
5 4 3 3 7 7 9 17 12 7 18 12 8 6 4 5 6 9 16 14 12 16 13 12 19 22 21 20 19 18 16 14 13 13 12 11 10 8 7 6 5 3 2 1 1 2 3 5 6
6 5 5 5 6 9 9 13 8 17 18 9 17 7 4 7 14 13 19 14 14 14 14 10 11 14 19 20 19 19 18 16 15 13 11 10 9 7 7 7 6 5 4 3 4 3 4 5 7
5 5 3 5 1 8 9 13 6 4 4 13 14 8 7 9 8 17 16 15 11 13 14 12 6 8 9 11 17 17 17 16 15 14 12 10 9 8 7 8 8 7 6 5 6 4 5 6 8
4 4 4 7 2 7 7 10 9 7 8 3 2 10 8 13 6 16 13 12 12 9 12 13 11 9 8 4 8 11 15 14 13 12 13 9 4 5 8 8 8 8 8 8 8 6 7 8 9
5 4 8 7 3 7 7 5 4 7 3 4 4 3 4 13 7 20 18 16 13 14 11 11 13 11 9 6 3 5 6 4 5 5 5 4 5 5 6 7 9 10 9 8 8 10 9 5 3
2 5 7 11 10 6 5 7 2 4 5 3 7 5 5 5 7 17 19 19 12 15 13 13 11 10 8 5 4 2 2 2 3 5 4 5 4 4 4 3 3 4 7 3 4 5 5 6 2
1 8 7 11 9 6 7 3 5 2 5 6 8 8 6 7 8 10 13 14 14 10 8 11 13 11 8 5 5 4 4 3 3 4 6 4 3 4 5 3 4 4 3 4 4 3 4 5 6
6 9 7 10 10 7 6 7 6 3 7 3 4 5 9 7 8 10 12 14 15 11 12 12 11 12 12 9 6 7 7 7 7 6 6 5 5 5 4 4 4 4 3 3 4 4 4 4 5
4 4 7 8 9 5 4 5 3 4 6 9 10 10 9 9 6 12 19 19 17 17 18 16 14 9 9 11 11 8 7 7 6 7 9 10 7 6 5 4 6 4 5 4 4 5 4 4 1
4 9 10 7 5 5 2 8 5 8 5 7 11 8 11 10 15 20 18 23 22 15 14 16 19 16 11 12 10 9 9 7 7 8 11 12 9 7 6 5 5 5 5 7 5 5 3 3 1
7 4 6 9 9 8 6 10 10 11 5 9 11 9 9 6 10 13 14 17 12 8 8 5 8 10 11 13 10 9 7 6 6 6 6 10 9 7 6 5 5 4 3 4 4 4 4 1 2
7 5 6 12 1 6 5 13 11 10 7 8 10 2 11 12 9 10 14 14 12 10 10 11 7 15 18 8 9 11 8 7 7 5 6 9 10 8 6 4 4 3 4 3 4 3 3 2 1
5 5 6 6 9 4 9 10 18 12 8 10 10 10 9 16 8 8 7 3 3 9 10 9 10 6 12 10 3 2 5 6 7 9 9 10 9 8 6 5 6 4 1 2 2 2 1 2 3
5 6 12 16 16 4 14 9 14 9 5 5 8 13 11 12 12 10 7 7 5 5 7 7 4 7 6 5 5 3 4 3 4 5 8 7 7 8 8 5 4 3 4 4 3 2 3 1 2
9 12 13 12 11 4 7 9 7 4 4 7 10 15 16 11 11 12 9 11 8 5 4 3 8 5 5 8 7 4 4 4 2 2 4 7 9 8 8 7 6 6 4 4 5 5 3 2 3
14 6 9 10 10 3 3 7 6 9 3 3 11 6 8 17 16 13 14 9 10 13 9 8 5 4 4 3 3 4 3 0 1 2 1 3 8 8 5 7 7 6 5 5 5 6 7 5 3
5 10 12 13 2 7 4 8 3 6 8 7 8 16 11 11 12 16 14 12 12 9 12 12 9 8 5 4 3 4 5 4 3 3 3 4 2 3 12 10 8 8 5 6 5 5 4 4 5
9 10 9 13 6 1 2 4 10 4 11 16 8 10 12 12 14 14 14 13 11 12 11 11 12 11 8 11 8 5 4 3 3 4 4 6 3 5 5 4 6 6 4 5 6 5 5 4 4
8 9 7 2 2 6 6 7 5 6 9 14 2 8 10 13 14 13 12 13 12 10 10 11 14 9 7 12 12 9 8 6 5 4 4 3 1 4 4 4 5 6 5 6 5 6 7 6 5
11 8 6 7 4 8 3 5 5 2 11 16 17 13 10 5 10 9 11 10 9 10 8 10 12 9 7 10 12 8 8 6 6 5 3 4 3 1 5 6 6 5 5 5 4 5 6 7 6
5 5 5 3 4 11 7 6 8 6 12 19 17 15 18 15 6 8 10 9 8 8 8 8 11 10 10 10 9 6 7 5 4 5 3 3 2 4 5 6 9 9 5 5 6 3 5 6 6
5 2 2 6 4 5 7 5 6 2 15 18 19 19 19 13 15 14 14 13 9 8 7 8 11 10 9 8 7 7 6 6 6 6 2 1 3 3 5 6 7 8 7 7 6 5 5 5 5
5 3 2 4 3 6 7 5 6 7 10 16 18 15 15 14 16 13 12 11 6 6 9 13 10 10 8 8 7 5 7 7 6 5 7 6 5 7 6 5 5 6 5 6 7 6 5 6 4
5 4 5 1 3 4 2 7 2 8 12 17 19 12 12 13 9 14 12 9 8 9 13 12 11 10 8 7 7 8 7 7 7 6 6 6 5 6 6 7 5 5 4 4 2 3 4 5 5
5 5 4 5 3 4 5 5 9 4 8 14 20 22 14 10 7 7 10 8 7 7 8 11 9 9 7 7 8 8 7 7 7 7 7 5 6 6 5 6 6 5 5 4 5 8 6 6 5
Wind_Direction
308 262 167 52 42 63 218 243 344 305 286 62 94 175 124 51 152 182 7 153 134 147 158 156 151 148 145 142 139 133 130 125 121 119 119 114 108 103 98 91 86 85 86 85 81 80 79 78 81
328 324 43 78 95 51 275 193 230 206 105 109 75 54 48 99 208 135 104 160 146 149 154 156 153 150 147 145 144 138 134 130 129 128 126 120 117 114 109 106 101 94 89 84 79 71 69 63 76
282 153 91 112 141 170 233 197 219 262 152 166 110 74 178 149 159 155 141 151 146 148 155 160 156 152 150 147 147 142 139 138 138 137 133 129 127 124 120 115 109 106 101 94 86 76 58 51 53
29 12 23 95 246 246 216 280 225 248 203 93 133 83 298 81 219 226 141 150 145 151 155 162 156 153 152 151 150 149 147 147 146 144 139 136 135 133 129 124 120 116 108 102 98 97 84 51 52
41 63 56 232 263 280 260 244 261 253 91 126 132 150 207 267 123 116 125 151 149 153 155 164 157 157 156 156 154 154 155 155 154 151 148 146 142 137 134 133 131 130 121 110 111 116 330 323 331
22 94 50 266 261 277 283 269 243 105 114 104 86 118 238 252 179 161 142 164 167 146 157 168 163 159 159 160 159 159 159 161 160 157 156 154 152 149 149 151 157 165 159 161 226 266 301 320 321
124 88 225 235 264 336 290 320 168 129 136 161 157 121 257 273 237 158 158 162 162 150 150 168 168 166 165 163 164 165 164 164 165 165 162 160 159 159 167 174 187 196 210 231 249 263 284 296 301
116 97 277 251 10 282 309 345 3 79 179 127 138 167 222 233 152 145 143 148 158 150 144 163 159 166 170 169 169 168 168 168 169 167 165 164 169 178 193 201 204 209 223 243 256 259 275 282 286
120 73 261 255 86 294 308 346 327 320 126 189 230 155 210 189 138 145 131 140 145 150 146 157 166 174 181 156 176 172 172 171 172 171 171 169 173 197 213 217 219 218 222 230 253 258 265 274 284
106 127 232 225 196 260 306 296 301 18 5 19 355 60 65 127 156 142 155 159 159 156 159 155 161 172 180 182 177 155 176 168 171 181 174 171 188 210 222 228 233 234 236 242 244 269 270 276 281
200 202 244 278 255 231 258 297 288 55 343 233 187 196 137 151 141 153 167 165 166 164 159 161 159 160 163 166 143 156 150 170 178 178 192 183 194 226 236 230 242 234 247 254 261 273 295 312 333
203 257 238 274 273 289 252 227 314 118 238 287 209 175 145 178 172 165 150 152 142 145 163 164 160 161 172 143 166 174 168 181 202 210 197 192 204 222 240 229 207 225 213 230 246 262 263 280 309
186 270 284 269 288 246 272 254 222 251 281 118 137 178 174 215 217 109 121 128 137 143 152 175 169 179 175 163 179 182 193 191 194 192 209 201 202 211 224 226 197 222 216 203 223 246 271 265 226
271 251 265 288 286 264 242 258 156 261 275 302 152 206 215 207 189 133 139 149 154 154 158 174 172 198 195 170 180 200 198 204 200 199 205 209 204 205 205 221 217 222 207 198 210 219 227 237 163
284 356 332 312 294 299 348 324 242 244 265 258 282 200 224 215 134 162 165 161 158 176 175 169 169 167 187 186 189 194 196 191 209 215 207 207 211 212 197 204 213 231 211 203 195 217 202 198 53
11 43 3 294 306 281 108 272 262 254 212 266 270 265 100 54 119 151 173 164 182 158 141 155 160 167 185 192 191 200 193 179 200 221 220 214 214 208 211 198 203 194 213 169 160 165 201 143 160
1 261 299 307 315 275 160 272 260 238 190 234 257 79 123 109 104 145 164 174 186 178 169 198 190 180 180 202 198 199 193 197 202 186 213 215 215 212 197 207 222 189 166 191 179 192 149 168 229
251 294 283 265 304 308 290 258 273 224 179 221 236 122 136 125 142 147 153 191 233 200 201 206 194 191 188 182 131 172 177 202 206 205 209 204 203 202 187 198 211 169 157 212 215 178 120 162 173
240 253 267 278 280 280 289 285 275 223 158 207 123 135 131 123 143 132 141 169 171 224 235 229 246 170 166 165 161 233 191 192 189 180 188 193 198 193 192 199 201 169 173 220 215 139 164 218 170
248 256 267 277 273 228 305 303 302 276 183 176 141 140 137 128 127 138 120 118 111 133 113 190 224 214 167 181 180 169 201 249 253 202 188 186 191 196 192 185 198 194 171 166 194 181 155 209 175
269 249 275 247 292 222 325 320 337 313 201 154 136 118 121 137 135 113 102 90 85 82 78 64 49 168 210 153 93 85 127 162 306 315 251 215 194 184 187 201 195 194 186 194 186 180 171 189 224
260 257 264 271 288 276 129 275 292 278 311 36 151 154 147 142 120 121 114 95 84 69 73 65 57 62 67 59 174 174 193 202 235 218 245 223 223 180 199 202 203 197 188 198 195 197 180 144 196
289 279 268 277 251 258 236 98 277 3 360 356 278 145 131 122 114 108 102 102 94 84 72 75 64 51 72 78 59 53 58 30 35 11 3 254 135 207 208 197 199 213 213 205 181 183 207 187 169
327 349 341 316 128 256 237 137 11 10 330 314 179 93 93 96 89 84 86 91 85 83 79 80 71 53 39 71 66 65 56 41 49 23 23 340 164 265 286 227 246 237 214 205 201 202 202 207 209
39 41 346 333 341 248 354 83 84 66 49 34 41 29 19 46 80 86 88 81 65 59 61 77 77 59 47 59 66 54 65 59 54 39 20 356 350 273 237 233 244 233 238 242 224 203 204 206 207
330 120 144 216 341 310 287 181 160 138 85 63 44 41 46 23 6 73 76 75 73 64 58 55 66 61 43 49 46 26 33 48 59 33 32 10 342 306 319 246 238 233 218 205 221 220 209 205 220
311 333 184 143 161 325 287 106 167 157 73 63 48 36 44 40 48 51 52 53 53 42 40 63 54 50 36 39 38 35 29 28 24 11 357 357 316 301 299 302 248 244 223 205 190 224 224 205 216
97 333 5 25 170 208 269 237 152 166 109 90 60 42 27 1 26 35 40 59 56 57 38 52 52 50 29 19 20 15 6 12 14 14 12 360 344 352 335 320 317 257 234 219 188 222 213 192 200
6 65 73 137 176 226 128 292 349 168 154 128 115 75 36 325 38 23 1 38 22 48 64 50 37 37 30 16 7 16 357 354 353 3 359 355 342 342 342 335 328 324 217 131 157 216 205 204 194
130 158 140 158 196 310 298 247 1 251 158 144 135 130 146 214 26 6 327 337 15 38 41 59 50 39 16 5 7 4 355 355 348 332 329 343 347 334 331 328 327 312 290 248 199 211 201 220 224